KE2HEH Weather Reports


time (UTC)temp
F
wind
direction
speed
knots
gust
knots
rain 1hr
in
rain 24hr
in
rain mn
in
humidity
%
barometer
mb
20260506035506 55 219 26.1 28.7 0.00 0.00 0.00 90 1011.7
20260506035003 55 196 20.9 28.7 0.00 0.00 0.00 90 1011.8
20260506034501 55 184 23.5 28.7 0.00 0.00 0.00 90 1012.0
20260506033957 56 198 22.6 29.5 0.00 0.00 0.00 90 1011.8
20260506033455 56 209 24.3 30.4 0.00 0.00 0.00 90 1011.8
20260506032951 56 219 24.3 29.5 0.00 0.00 0.00 90 1011.9
20260506032449 56 196 25.2 31.3 0.00 0.00 0.00 90 1011.6
20260506031945 56 208 27.8 29.5 0.00 0.00 0.00 90 1011.8
20260506031443 56 224 21.7 29.5 0.00 0.00 0.00 90 1011.8
20260506030940 56 205 20.9 28.7 0.00 0.00 0.00 90 1011.8
20260506030438 56 178 21.7 28.7 0.00 0.00 0.00 90 1011.9
20260506025934 56 193 26.1 29.5 0.00 0.00 0.00 90 1011.9
20260506025431 56 204 20.9 27.8 0.00 0.00 0.00 90 1011.9
20260506024928 56 203 26.1 28.7 0.00 0.00 0.00 90 1012.1
20260506024425 56 196 23.5 28.7 0.00 0.00 0.00 90 1011.9
20260506023921 56 227 21.7 27.8 0.00 0.00 0.00 90 1011.8
20260506023418 56 199 25.2 26.9 0.00 0.00 0.00 89 1011.7
20260506022914 56 190 23.5 27.8 0.00 0.00 0.00 89 1011.7
20260506022412 57 196 26.1 31.3 0.00 0.00 0.00 89 1011.8
20260506021910 57 185 26.1 31.3 0.00 0.00 0.00 89 1011.7
20260506021407 57 210 26.1 28.7 0.00 0.00 0.00 89 1011.9
20260506020904 57 201 20.0 26.9 0.00 0.00 0.00 89 1011.9
20260506020402 57 207 21.7 28.7 0.00 0.00 0.00 89 1011.8
20260506015859 56 191 26.9 29.5 0.00 0.00 0.00 89 1011.8
20260506015356 56 231 25.2 30.4 0.00 0.00 0.00 89 1011.6
20260506014853 56 193 21.7 30.4 0.00 0.00 0.00 88 1011.8
20260506014350 56 193 20.0 27.8 0.00 0.00 0.00 88 1011.5
20260506013846 56 205 21.7 28.7 0.00 0.00 0.00 88 1011.6
20260506013344 56 194 19.1 27.8 0.00 0.00 0.00 88 1011.6
20260506012840 56 203 20.0 26.1 0.00 0.00 0.00 88 1011.7
20260506012337 56 242 20.0 27.8 0.00 0.00 0.00 88 1011.8
20260506011835 56 233 17.4 27.8 0.00 0.00 0.00 88 1011.6
20260506011331 57 212 19.1 27.8 0.00 0.00 0.00 88 1011.6
20260506010829 57 200 21.7 26.9 0.00 0.00 0.00 88 1011.4
20260506010326 56 205 14.8 26.1 0.00 0.00 0.00 88 1011.6
20260506005823 56 171 17.4 26.1 0.00 0.00 0.00 87 1011.7
20260506005320 57 194 22.6 27.8 0.00 0.00 0.00 87 1011.3
20260506004816 57 205 16.5 23.5 0.00 0.00 0.00 87 1011.5
20260506004314 57 200 24.3 30.4 0.00 0.00 0.00 87 1011.5
20260506003809 57 189 16.5 27.8 0.00 0.00 0.00 87 1011.2
20260506003306 57 177 20.9 28.7 0.00 0.00 0.00 87 1011.2
20260506002802 57 202 20.9 27.8 0.00 0.00 0.00 87 1011.1
20260506002259 57 207 24.3 30.4 0.00 0.00 0.00 87 1011.1
20260506001754 57 196 23.5 28.7 0.00 0.00 0.00 86 1011.2
20260506001252 58 210 25.2 30.4 0.00 0.00 0.00 85 1011.1
20260506000749 58 210 25.2 30.4 0.00 0.00 0.00 85 1011.1
20260506000247 58 200 25.2 30.4 0.00 0.00 0.00 85 1011.0
20260505235743 58 188 28.7 33.0 0.00 0.00 0.00 85 1010.9
20260505235241 58 219 27.8 30.4 0.00 0.00 0.00 85 1010.8
20260505234738 58 198 27.8 35.6 0.00 0.00 0.00 85 1010.3
20260505234235 58 188 24.3 33.0 0.00 0.00 0.00 85 1010.5
20260505233731 58 199 27.8 33.0 0.00 0.00 0.00 85 1010.2
20260505233230 58 188 26.1 29.5 0.00 0.00 0.00 85 1010.4
20260505232726 58 196 24.3 30.4 0.00 0.00 0.00 85 1010.1
20260505232224 58 195 25.2 31.3 0.00 0.00 0.00 85 1010.2
20260505231721 58 189 27.8 33.9 0.00 0.00 0.00 85 1010.1
20260505231220 58 207 26.1 33.0 0.00 0.00 0.00 85 1010.0
20260505230717 58 196 25.2 30.4 0.00 0.00 0.00 85 1010.0
20260505230214 58 205 26.9 30.4 0.00 0.00 0.00 85 1010.0
20260505225710 58 176 25.2 33.9 0.00 0.00 0.00 85 1010.1
20260505225207 58 196 25.2 31.3 0.00 0.00 0.00 85 1009.9
20260505224702 58 202 23.5 30.4 0.00 0.00 0.00 85 1010.0
20260505224201 58 210 25.2 34.8 0.00 0.00 0.00 85 1009.6
20260505223658 58 174 23.5 31.3 0.00 0.00 0.00 85 1009.8
20260505223153 58 188 18.2 29.5 0.00 0.00 0.00 85 1009.7
20260505222650 58 220 17.4 27.8 0.00 0.00 0.00 85 1009.8
20260505222146 58 192 21.7 27.8 0.00 0.00 0.00 85 1009.7
20260505221643 58 179 20.0 25.2 0.00 0.00 0.00 85 1009.7
20260505221140 58 243 13.9 21.7 0.00 0.00 0.00 84 1009.6
20260505220637 58 177 19.1 27.8 0.00 0.00 0.00 84 1009.7
20260505220135 58 176 14.8 22.6 0.00 0.00 0.00 84 1009.7
20260505215632 58 205 23.5 28.7 0.00 0.00 0.00 84 1009.5
20260505215130 58 191 18.2 23.5 0.00 0.00 0.00 84 1009.4
20260505214628 58 162 20.0 26.9 0.00 0.00 0.00 84 1009.6
20260505214125 58 184 19.1 25.2 0.00 0.00 0.00 84 1009.5
20260505213622 58 173 15.6 27.8 0.00 0.00 0.00 84 1009.7
20260505213119 58 200 19.1 30.4 0.00 0.00 0.00 83 1009.4
20260505212615 59 195 13.9 22.6 0.00 0.00 0.00 83 1009.3
20260505212113 59 221 20.0 25.2 0.00 0.00 0.00 84 1009.3
20260505211609 59 199 16.5 23.5 0.00 0.00 0.00 84 1009.2
20260505211107 58 197 13.9 25.2 0.00 0.00 0.00 84 1009.2
20260505210603 58 207 18.2 26.9 0.00 0.00 0.00 84 1009.2
20260505210100 58 228 18.2 27.8 0.00 0.00 0.00 84 1009.3
20260505205558 58 213 17.4 30.4 0.00 0.00 0.00 85 1009.5
20260505205055 58 156 18.2 28.7 0.00 0.00 0.00 85 1009.4
20260505204552 58 207 17.4 23.5 0.00 0.00 0.00 85 1009.2
20260505204050 58 190 16.5 28.7 0.00 0.00 0.00 85 1009.5
20260505203546 58 214 19.1 26.1 0.00 0.00 0.00 85 1009.4
20260505203043 58 202 15.6 20.0 0.00 0.00 0.00 85 1009.3
20260505202539 58 234 14.8 22.6 0.00 0.00 0.00 85 1009.2
20260505202035 58 199 15.6 23.5 0.00 0.00 0.00 85 1009.6
20260505201532 58 186 13.0 20.9 0.00 0.00 0.00 85 1009.4
20260505201030 58 162 14.8 20.0 0.00 0.00 0.00 85 1009.3
20260505200528 58 216 14.8 22.6 0.00 0.00 0.00 85 1009.7
20260505200025 58 163 17.4 22.6 0.00 0.00 0.00 85 1009.4
20260505195520 58 212 14.8 20.9 0.00 0.00 0.00 86 1009.5
20260505195018 58 213 13.0 19.1 0.00 0.00 0.00 86 1009.5
20260505194515 58 181 16.5 21.7 0.00 0.00 0.00 86 1009.9
20260505194010 58 180 16.5 20.9 0.00 0.00 0.00 86 1009.8
20260505193508 58 229 18.2 21.7 0.00 0.00 0.00 86 1009.8
20260505193005 58 209 16.5 20.0 0.00 0.00 0.00 86 1009.9
20260505192503 58 162 14.8 21.7 0.00 0.00 0.00 85 1009.9
20260505192001 58 202 13.0 18.2 0.00 0.00 0.00 85 1010.2
20260505191459 58 178 7.8 16.5 0.00 0.00 0.00 86 1010.3
20260505190956 58 184 13.9 16.5 0.00 0.00 0.00 86 1010.6
20260505190450 58 204 11.3 19.1 0.00 0.00 0.00 86 1010.4
20260505185946 58 183 14.8 21.7 0.00 0.00 0.00 86 1010.6
20260505185444 58 208 15.6 18.2 0.00 0.00 0.00 86 1010.5
20260505184940 58 184 12.2 22.6 0.00 0.00 0.00 86 1010.7
20260505184437 58 214 12.2 19.1 0.00 0.00 0.00 86 1010.8
20260505183933 58 206 14.8 20.9 0.00 0.00 0.00 86 1010.8
20260505183430 58 197 13.0 18.2 0.00 0.00 0.00 86 1010.8
20260505182927 58 211 14.8 20.0 0.00 0.00 0.00 86 1011.1
20260505182424 58 181 13.9 19.1 0.00 0.00 0.00 86 1010.9
20260505181920 58 177 13.0 19.1 0.00 0.00 0.00 86 1010.9
20260505181418 58 211 15.6 19.1 0.00 0.00 0.00 86 1011.0
20260505180914 58 176 12.2 16.5 0.00 0.00 0.00 86 1011.2
20260505180411 58 218 11.3 16.5 0.00 0.00 0.00 86 1011.1
20260505175908 58 180 13.9 18.2 0.00 0.00 0.00 87 1011.3
20260505175404 58 204 11.3 14.8 0.00 0.00 0.00 86 1011.2
20260505174900 58 210 8.7 14.8 0.00 0.00 0.00 87 1011.4
20260505174358 58 170 12.2 13.9 0.00 0.00 0.00 87 1011.4
20260505173854 58 193 10.4 13.9 0.00 0.00 0.00 87 1011.4
20260505173351 58 190 7.8 13.9 0.00 0.00 0.00 87 1011.4
20260505172848 58 179 11.3 15.6 0.00 0.00 0.00 87 1011.3
20260505172345 57 194 11.3 13.9 0.00 0.00 0.00 87 1011.4
20260505171845 57 191 13.0 15.6 0.00 0.00 0.00 87 1011.6
20260505171342 58 198 10.4 13.0 0.00 0.00 0.00 87 1011.5
20260505170838 58 181 9.6 14.8 0.00 0.00 0.00 87 1011.6
20260505170335 58 208 10.4 13.9 0.00 0.00 0.00 87 1011.5
20260505165831 57 178 7.8 13.0 0.00 0.00 0.00 87 1011.6
20260505165326 58 174 10.4 13.0 0.00 0.00 0.00 87 1011.5
20260505164822 57 188 7.0 13.9 0.00 0.00 0.00 88 1011.8
20260505164320 57 186 8.7 13.9 0.00 0.00 0.00 87 1011.9
20260505163818 57 180 7.0 11.3 0.00 0.00 0.00 88 1012.0
20260505163316 57 186 7.0 12.2 0.00 0.00 0.00 88 1011.8
20260505162814 57 212 8.7 11.3 0.00 0.00 0.00 88 1011.9
20260505162310 57 189 7.0 12.2 0.00 0.00 0.00 88 1011.9
20260505161807 57 195 7.8 11.3 0.00 0.00 0.00 88 1012.0
20260505161304 58 213 7.0 11.3 0.00 0.00 0.00 88 1012.3
20260505160802 57 205 6.1 8.7 0.00 0.00 0.00 88 1012.1
20260505160259 57 215 5.2 9.6 0.00 0.00 0.00 89 1012.4
20260505153238 57 202 6.1 7.8 0.00 0.00 0.00 90 1012.4
20260505152736 56 194 5.2 7.8 0.00 0.00 0.00 90 1012.5
20260505152232 56 202 5.2 7.0 0.00 0.00 0.00 90 1012.7
20260505151732 56 206 4.3 5.2 0.00 0.00 0.00 90 1012.7
20260505151230 56 205 4.3 6.1 0.00 0.00 0.00 91 1012.7
20260505150726 56 207 3.5 7.8 0.00 0.00 0.00 91 1012.6
20260505150223 56 195 4.3 7.0 0.00 0.00 0.00 91 1012.7
20260505140651 55 192 6.1 8.7 0.00 0.00 0.00 94 1012.7
20260505140148 54 202 7.0 9.6 0.00 0.00 0.00 94 1012.6
20260505130112 54 198 3.5 7.0 0.00 0.00 0.00 96 1012.8
20260505124601 54 189 6.1 7.0 0.00 0.00 0.00 96 1012.6
20260505124057 53 197 5.2 7.8 0.00 0.00 0.00 96 1012.4
20260505123554 53 200 6.1 8.7 0.00 0.00 0.00 96 1012.5
20260505123050 53 193 5.2 7.8 0.00 0.00 0.00 96 1012.6
20260505122547 53 196 7.8 9.6 0.00 0.00 0.00 96 1012.4
20260505122044 53 189 5.2 7.8 0.00 0.00 0.00 96 1012.5
20260505121541 53 170 6.1 7.8 0.00 0.00 0.00 96 1012.4
20260505121038 53 196 6.1 8.7 0.00 0.00 0.00 96 1012.5
20260505120534 53 183 5.2 7.0 0.00 0.00 0.00 96 1012.4
20260505120030 53 211 0.9 1.7 0.00 0.00 0.00 96 1012.6
20260505115524 53 210 1.7 5.2 0.00 0.00 0.00 96 1012.4
20260505115022 53 208 1.7 1.7 0.00 0.00 0.00 96 1012.6
20260505114519 53 212 0.9 3.5 0.00 0.00 0.00 96 1012.6
20260505114015 53 213 3.5 5.2 0.00 0.00 0.00 96 1012.5
20260505113512 53 210 1.7 3.5 0.00 0.00 0.00 96 1012.6
20260505113009 53 200 1.7 5.2 0.00 0.00 0.00 97 1012.6
20260505112505 53 202 2.6 3.5 0.00 0.00 0.00 96 1012.8
20260505112003 53 209 0.9 2.6 0.00 0.00 0.00 97 1012.6
20260505111502 53 208 2.6 3.5 0.00 0.00 0.00 96 1012.4
20260505110959 53 208 2.6 2.6 0.00 0.00 0.00 96 1012.5
20260505110455 53 208 1.7 2.6 0.00 0.00 0.00 97 1012.6
20260505101927 52 211 3.5 5.2 0.00 0.00 0.00 96 1011.7
20260505101421 52 215 3.5 7.0 0.00 0.00 0.00 96 1011.7
20260505100917 52 207 5.2 7.8 0.00 0.00 0.00 96 1011.8
20260505100414 52 210 6.1 7.8 0.00 0.00 0.00 96 1011.6
20260505095909 52 198 7.0 9.6 0.00 0.00 0.00 96 1011.7
20260505095407 52 214 8.7 9.6 0.00 0.00 0.00 96 1011.4
20260505094903 52 213 8.7 12.2 0.00 0.00 0.00 96 1011.6
20260505094400 53 207 10.4 12.2 0.00 0.00 0.00 96 1011.5
20260505093855 52 206 9.6 11.3 0.00 0.00 0.00 96 1011.3
20260505093353 52 211 7.8 8.7 0.00 0.00 0.00 96 1011.5
20260505092850 52 202 7.0 8.7 0.00 0.00 0.00 96 1011.2
20260505092348 52 219 5.2 7.8 0.00 0.00 0.00 96 1011.6
20260505091845 52 216 6.1 7.8 0.00 0.00 0.00 96 1011.3
20260505091343 52 209 7.0 7.8 0.00 0.00 0.00 96 1011.3
20260505090841 52 209 5.2 7.8 0.00 0.00 0.00 96 1011.4
20260505090339 52 201 7.0 8.7 0.00 0.00 0.00 96 1011.6
20260505085836 52 213 5.2 7.8 0.00 0.00 0.00 96 1011.3
20260505085334 52 211 7.8 9.6 0.00 0.00 0.00 96 1011.4
20260505084831 52 208 7.8 7.8 0.00 0.00 0.00 96 1011.4
20260505084329 52 205 7.0 7.8 0.00 0.00 0.00 96 1011.3
20260505083826 52 216 5.2 7.8 0.00 0.00 0.00 96 1011.2
20260505083324 52 227 5.2 7.0 0.00 0.00 0.00 95 1011.4
20260505082820 52 218 4.3 7.0 0.00 0.00 0.00 95 1011.4
20260505082317 52 216 6.1 8.7 0.00 0.00 0.00 95 1011.6
20260505081813 52 202 7.0 7.8 0.00 0.00 0.00 95 1011.7
20260505081310 52 211 5.2 7.0 0.00 0.00 0.00 95 1011.7
20260505080807 53 219 7.0 7.8 0.00 0.00 0.00 95 1011.6
20260505080303 53 217 7.8 9.6 0.00 0.00 0.00 95 1011.6
20260505075758 53 220 6.1 8.7 0.00 0.00 0.00 95 1011.5
20260505075255 53 213 6.1 7.8 0.00 0.00 0.00 95 1011.6
20260505074753 53 206 6.1 7.8 0.00 0.00 0.00 95 1011.5
20260505074250 53 211 5.2 7.8 0.00 0.00 0.00 95 1011.3
20260505073747 53 213 7.0 8.7 0.00 0.00 0.00 95 1011.4
20260505073245 53 209 7.8 9.6 0.00 0.00 0.00 95 1011.3
20260505072741 53 224 7.8 9.6 0.00 0.00 0.00 94 1011.3
20260505072237 53 209 7.0 9.6 0.00 0.00 0.00 94 1011.4
20260505071733 53 213 7.8 9.6 0.00 0.00 0.00 94 1011.3
20260505071230 53 226 8.7 11.3 0.00 0.00 0.00 94 1011.4
20260505070728 53 212 8.7 13.0 0.00 0.00 0.00 94 1011.3
20260505070224 53 216 10.4 13.0 0.00 0.00 0.00 94 1011.1
20260505065720 53 221 10.4 13.0 0.00 0.00 0.00 94 1011.3
20260505065217 53 201 9.6 12.2 0.00 0.00 0.00 94 1011.3
20260505064714 53 215 8.7 13.0 0.00 0.00 0.00 94 1011.3
20260505064212 53 207 13.0 20.9 0.00 0.00 0.00 94 1011.3
20260505063709 53 191 13.0 15.6 0.00 0.00 0.00 94 1011.1
20260505063205 53 198 14.8 20.0 0.00 0.00 0.00 94 1011.2
20260505062701 53 197 13.9 15.6 0.00 0.00 0.00 94 1011.2
20260505062159 53 219 13.0 16.5 0.00 0.00 0.00 94 1011.2
20260505061656 53 207 15.6 18.2 0.00 0.00 0.00 94 1011.4
20260505061154 53 188 12.2 20.0 0.00 0.00 0.00 94 1011.5
20260505060651 53 193 14.8 16.5 0.00 0.00 0.00 94 1011.4
20260505060148 53 193 13.0 18.2 0.00 0.00 0.00 94 1011.4
20260505055643 53 196 12.2 19.1 0.00 0.00 0.00 94 1011.5
20260505055140 53 196 11.3 16.5 0.00 0.00 0.00 94 1011.4
20260505054638 53 186 14.8 18.2 0.00 0.00 0.00 94 1011.6
20260505054135 53 200 13.0 18.2 0.00 0.00 0.00 94 1011.5
20260505053633 53 221 11.3 18.2 0.00 0.00 0.00 94 1011.7
20260505053129 53 214 11.3 20.0 0.00 0.00 0.00 93 1011.6
20260505052626 53 204 17.4 20.0 0.00 0.00 0.00 94 1011.6
20260505052124 53 189 14.8 19.1 0.00 0.00 0.00 93 1011.8
20260505051620 53 192 15.6 19.1 0.00 0.00 0.00 93 1011.8
20260505051118 53 198 10.4 15.6 0.00 0.00 0.00 93 1011.7
20260505050616 54 174 14.8 16.5 0.00 0.00 0.00 93 1011.8
20260505050114 54 201 13.9 16.5 0.00 0.00 0.00 93 1011.8
20260505041544 54 205 9.6 14.8 0.00 0.00 0.00 92 1012.2
20260505041041 54 194 7.8 12.2 0.00 0.00 0.00 92 1012.1
20260505040538 54 200 9.6 13.9 0.00 0.00 0.00 91 1012.0
20260505040035 54 212 8.7 13.9 0.00 0.00 0.00 91 1012.2